Location: Eexterzandvoort
(53.0303°N, 6.7884°E)
Time: 05:59:43
(UTC+00:00)

Cosmos 2082 Rocket - Pass Details

Date: 19 May 2025
Orbit: 832 x 853 km, 71.0° (Epoch: 14 June)

Event Time Altitude Azimuth Distance (km) Brightness Sun altitude
Exits shadow 23:23:47 - 239° (WSW) 2,984 4.8 -17.0°
Reaches altitude 10° 23:25:18 10° 244° (WSW) 2,442 4.4 -17.0°
Maximum altitude 23:30:34 41° 314° (NW) 1,204 3.3 -17.0°
Drops below altitude 10° 23:35:53 10° 24° (NNE) 2,463 5.7 -17.0°
Sets 23:38:30 0° 32° (NNE) 3,404 6.4 -17.0°
